756  
ASUS43 KFSD 220610  
RWRSD  
 
WEATHER ROUNDUP FOR SOUTH DAKOTA  
NATIONAL WEATHER SERVICE SIOUX FALLS SD  
100 AM CDT MON OCT 22 2018  
 
NOTE: "FAIR" INDICATES FEW OR NO CLOUDS BELOW 12,000 FEET WITH NO  
SIGNIFICANT WEATHER AND/OR S TO VISIBILITY
.  
 
 
SDZ001>005-009-010-012>017-220700-  
NORTHWEST AND NORTH CENTRAL SOUTH DAKOTA  
 
CITY SKY/WX TMP DP RH WIND PRES REMARKS
 
BUFFALO N/A 42 23 46 N3 30.07R  
FAITH N/A 46 26 45 SE12 30.08F  
MOBRIDGE CLEAR 35 30 82 N6 30.07R  

 
 
SDZ012>016-024>037-041>051-057-063-072>074-220700-  
SOUTHWEST AND SOUTH CENTRAL SOUTH DAKOTA  
 
CITY SKY/WX TMP DP RH WIND PRES REMARKS
 
RAPID CTY ARPT CLEAR 39 28 64 CALM 30.09S  
PIERRE MOCLDY 38 28 67 N3 30.08S  
CUSTER CLEAR 38 28 67 W5 30.14F  
ELLSWORTH AFB PTCLDY 46 31 55 CALM 30.09S  
PHILIP PTCLDY 33 28 81 W6 30.09S WCI 28  
PINE RIDGE CLEAR 34 32 92 E7 30.10R WCI 28  
SPEARFISH FAIR 41 36 81 S7 30.09S  
WINNER FAIR 40 33 76 W3 30.09S  

 
 
SDZ004>011-016>023-039-040-220700-  
NORTHEAST SOUTH DAKOTA  
 
CITY SKY/WX TMP DP RH WIND PRES REMARKS
 
ABERDEEN CLEAR 28 24 85 SW5 30.08R WCI 23  
WATERTOWN CLOUDY 31 28 89 CALM 30.06R  
BROOKINGS CLOUDY 35 30 82 CALM 30.07R  
SISSETON N/A 41 29 62 W6 30.03S  

 
 
SDZ017-020-022-023-036>040-048>070-220700-  
SOUTHEAST SOUTH DAKOTA  
 
CITY SKY/WX TMP DP RH WIND PRES REMARKS
 
SIOUX FALLS CLOUDY 36 31 82 CALM 30.06S  
HURON MOCLDY 34 28 79 NW3 30.08S  
CHAMBERLAIN PTCLDY 42 32 68 CALM 30.08S  
MITCHELL PTCLDY 39 30 70 CALM 30.08S  
YANKTON CLEAR 42 36 79 N10 30.05S  

 
 
ABBREVIATIONS USED IN REMARKS  
TC - TEMPERATURE IN CELSIUS  
WCI - WIND CHILL INDEX  
HX - HEAT INDEX  
VSB - VISIBILITY  
 
 
 
CLICK HERE TO GO TO PREVIOUS BULLETINS.

The Nexlab SD Page Main Text Page